Regional Weather Roundup
Issued by NWS

Home | Current Version | Previous Version | Text Only | Print | Product List | Glossary Off
Versions: 1 2 3 4 5 6 7 8 9 10 11 12 13 14 15 16 17 18 19 20 21 22 23 24 25 26 27

000
ASUS45 KBOU 170106
RWRCO

WEATHER ROUNDUP FOR COLORADO
NATIONAL WEATHER SERVICE DENVER/BOULDER CO
700 PM MDT WED APR 16 2014

NOTE: "FAIR" INDICATES FEW OR NO CLOUDS BELOW 12000 FEET WITH NO
SIGNIFICANT WEATHER AND/OR OBSTRUCTIONS TO VISIBILITY.

COZ001>005-013-030-031-170200-
...NORTHWEST COLORADO...

CITY           SKY/WX    TMP DP  RH WIND       PRES   REMARKS
CRAIG          MOCLDY    50  11  20 VRB3      29.96S
HAYDEN         MOCLDY    46  10  23 W6        29.99S
MEEKER         PTCLDY    52  10  18 NW5       29.95R
MOUNT WERNER   NOT AVBL
STEAMBOAT SPGS MOCLDY    45   5  19 W7        29.97S
WALDEN         PTCLDY    37   7  28 SW8       29.99S
$$

COZ006>008-011-170200-
...WEST CENTRAL VALLEYS...

CITY           SKY/WX    TMP DP  RH WIND       PRES   REMARKS
GRAND JUNCTION PTCLDY    58  13  17 W8        29.90S
MONTROSE       CLOUDY    54  19  25 NW7       29.96R
EAGLE          MOCLDY    54  10  17 SW13      29.94R
RIFLE          PTCLDY    55  13  18 W10       29.91R
DELTA          CLOUDY    60  11  14 W8        29.92S
NUCLA            N/A     54  21  28 NW10      29.98R
$$

COZ017>023-064>068-170200-
...SOUTHWEST COLORADO...

CITY           SKY/WX    TMP DP  RH WIND       PRES   REMARKS
DURANGO        CLOUDY    52  20  28 W18G25    29.91R
CORTEZ         PTCLDY    56  25  30 W10       29.93R
PAGOSA SPRINGS CLOUDY    50  18  28 W14       29.93R
TELLURIDE      CLOUDY    37  27  65 CALM      30.02S
WOLF CREEK PAS LGT SNOW  27  21  80 SW22G35   30.03S WCI  12
$$

COZ009-010-012-014-032>034-037-058>063-170200-
...CENTRAL COLORADO...

CITY           SKY/WX    TMP DP  RH WIND       PRES   REMARKS
ASPEN          CLOUDY    44  20  38 VRB5      29.96R
BUENA VISTA    CLOUDY    42  28  57 NE7       29.97R
COPPER MTN     CLOUDY    28  10  47 W18G31    30.05S WCI  16
BERTHOUD PASS  LGT SNOW  14   5  67 CALM      30.07R VSB 1
COTTONWOOD PAS CLOUDY    36  28  75 CALM      30.02R
GUNNISON       CLOUDY    45  16  31 NW10G20   29.99R
KREMMLING      CLOUDY    43   5  21 N10G18    29.97S
LEADVILLE      CLOUDY    31  14  49 NW12      30.00R WCI  22
MONARCH PASS   FOG       27  23  86 NE6       30.15R VSB 1/2 WCI  20
SALIDA         CLOUDY    41  33  72 SE24G30   30.03R
SUNLIGHT       CLOUDY    34  18  51 CALM      30.06R
WILKERSON PASS LGT SNOW  23  21  93 NE6       30.07R VSB 3/4 WCI  16
$$

COZ069>075-170200-
...SAN LUIS VALLEY/SANGRE DE CRISTO MOUNTAINS...

CITY           SKY/WX    TMP DP  RH WIND       PRES   REMARKS
ALAMOSA        LGT RAIN  40  36  86 E7        29.95R
LA VETA PASS   NOT AVBL
SAGUACHE       CLOUDY    48  18  29 NW21G26   29.93R
$$

COZ035-036-038>040-170200-
...NORTHERN COLORADO FRONT RANGE...

CITY           SKY/WX    TMP DP  RH WIND       PRES   REMARKS
DENVER INTL AP CLOUDY    48  21  34 NE12      30.00R
DMNS CITY PARK   N/A     48  19  31 N2G14     30.00R
AURORA         CLOUDY    46  21  36 E10       30.00R
FRONT RANGE AP NOT AVBL
ERIE MUNI ARPT CLOUDY    48  22  35 CALM      30.01R
BOULDER MUN AP CLOUDY    46  27  46 N7        30.01R
CENTENNIAL     CLOUDY    45  21  38 E7        30.01R
BROOMFIELD     NOT AVBL
FORT COLLINS   CLOUDY    46  25  42 NE7       30.03R
LONGMONT       CLOUDY    49  26  40 SW7       30.04R
$$

COZ041-046-047-076>085-087-088-170200-
...PIKES PEAK/PALMER DIVIDE AND SOUTHERN FOOTHILLS...

CITY           SKY/WX    TMP DP  RH WIND       PRES   REMARKS
COLO. SPRINGS  LGT RAIN  36  33  89 N6        30.06R FOG
A. F. ACADEMY  LGT SNOW  32  32 100 W3        30.05R FOG
ELLICOTT       NOT AVBL
FALCON         LGT SNOW  34  32  92 N7        30.06R WCI  28
FORT CARSON    NOT AVBL
LIMON          CLOUDY    45  24  43 NE13      30.01R
MONUMENT HILL  FLURRIES  32  30  93 S13       30.03R WCI  22
TRINIDAD       RAIN      40  35  83 N17G23    30.02R
$$

COZ042>045-048>051-090-091-170200-
...NORTHEAST COLORADO...

CITY           SKY/WX    TMP DP  RH WIND       PRES   REMARKS
GREELEY ARPT   CLOUDY    48  25  40 NE7       30.02R
AKRON          CLOUDY    45  30  55 E9        30.01R
BURLINGTON     CLOUDY    49  28  44 NE13      30.01R
WRAY           MOCLDY    49  31  49 NE15      30.01R
STERLING       CLOUDY    50  32  50 NE10      29.99R
HOLYOKE        MOCLDY    46  32  57 NE16G24   30.00R
FORT MORGAN    CLOUDY    49  20  32 NE14      30.01R
$$

COZ086-089-092>099-170200-
...SOUTHEAST COLORADO...

CITY           SKY/WX    TMP DP  RH WIND       PRES   REMARKS
PUEBLO         LGT RAIN  48  34  58 W10       30.01R
LA JUNTA       CLOUDY    53  25  33 NE9       29.99R
LAMAR          CLOUDY    54  25  32 NE14      29.96R
SPRINGFIELD      N/A     52  23  32 NE18      29.95R
$$



USA.gov is the U.S. government's official web portal to all federal, state and local government web resources and services.